GW0518 Weather Reports


Display with metric or nautical units.
time (UTC)temp
F
wind
direction
speed
MPH
gust
MPH
rain 1hr
in
rain 24hr
in
rain mn
in
humidity
%
barometer
mb
20260507092227 35 299 0.0 0.0 0.00 0.31 0.00 92 1012.5
20260507091954 35 299 0.0 0.0 0.00 0.32 0.00 92 1012.4
20260507091227 35 299 0.0 1.0 0.00 0.32 0.00 92 1012.1
20260507090948 36 299 0.0 1.0 0.00 0.32 0.00 92 1012.0
20260507090227 36 299 0.0 1.0 0.00 0.32 0.00 92 1012.1
20260507085948 36 300 0.0 0.0 0.00 0.33 0.00 92 1012.2
20260507085228 36 300 0.0 0.0 0.00 0.33 0.00 92 1012.5
20260507084953 37 300 0.0 0.0 0.00 0.34 0.00 92 1012.5
20260507084227 37 300 0.0 1.0 0.00 0.35 0.00 92 1012.5
20260507083727 37 300 0.0 1.0 0.00 0.35 0.00 92 1012.4
20260507083445 37 300 0.0 1.0 0.00 0.36 0.00 92 1012.5
20260507082727 37 300 0.0 0.0 0.00 0.36 0.00 92 1012.5
20260507082227 38 300 0.0 0.0 0.00 0.37 0.00 92 1012.5
20260507081727 38 300 0.0 1.0 0.00 0.37 0.00 92 1012.6
20260507081227 38 300 0.0 2.0 0.00 0.38 0.00 92 1012.8
20260507080945 38 300 0.0 2.0 0.00 0.38 0.00 92 1012.7
20260507080227 39 300 0.0 1.0 0.00 0.38 0.00 93 1012.6
20260507075729 39 300 0.0 1.0 0.00 0.39 0.00 93 1012.4
20260507075227 39 300 0.0 0.0 0.00 0.39 0.00 93 1012.4
20260507074727 39 300 0.0 1.0 0.00 0.41 0.00 93 1012.5
20260507074226 39 300 0.0 2.0 0.00 0.41 0.00 93 1012.5
20260507073728 40 300 0.0 4.0 0.00 0.41 0.00 93 1012.4
20260507073227 40 300 0.0 4.0 0.00 0.41 0.00 93 1012.4
20260507072727 40 300 0.0 0.0 0.00 0.41 0.00 93 1012.4
20260507072227 40 300 0.0 0.0 0.00 0.41 0.00 93 1012.4
20260507071727 40 300 0.0 0.0 0.00 0.41 0.00 93 1012.3
20260507071227 40 300 0.0 3.0 0.00 0.41 0.00 93 1012.2
20260507070946 40 300 0.0 3.0 0.00 0.41 0.00 93 1012.2
20260507070227 40 300 0.0 2.0 0.00 0.41 0.00 93 1012.3
20260507065726 40 300 0.0 1.0 0.00 0.41 0.00 94 1012.5
20260507065227 40 300 0.0 2.0 0.00 0.41 0.00 94 1012.2
20260507064726 40 300 0.0 2.0 0.00 0.41 0.00 94 1012.3
20260507064225 41 300 0.0 2.0 0.00 0.41 0.00 94 1012.3
20260507063725 41 300 1.0 3.0 0.00 0.41 0.00 94 1012.4
20260507062725 41 300 1.0 3.0 0.00 0.41 0.00 94 1012.4
20260507062224 41 300 0.0 3.0 0.00 0.42 0.00 94 1012.4
20260507061725 41 300 1.0 4.0 0.00 0.42 0.00 94 1012.4
20260507061224 41 300 1.0 8.0 0.00 0.42 0.00 94 1012.7
20260507060725 41 300 1.0 8.0 0.00 0.42 0.00 94 1012.8
20260507060225 41 292 1.0 4.0 0.00 0.42 0.00 94 1012.7
20260507055725 41 292 1.0 3.0 0.00 0.42 0.00 94 1012.6
20260507055225 41 292 1.0 4.0 0.00 0.42 0.00 94 1012.6
20260507054724 41 292 2.0 5.0 0.00 0.42 0.00 94 1012.9
20260507054226 41 292 1.0 5.0 0.00 0.42 0.00 94 1012.9
20260507053946 41 292 2.0 5.0 0.00 0.42 0.00 94 1012.7
20260507053225 41 292 1.0 7.0 0.00 0.42 0.00 94 1012.6
20260507052725 41 291 1.0 7.0 0.00 0.42 0.00 94 1012.7
20260507052449 41 291 2.0 9.0 0.00 0.42 0.00 94 1012.8
20260507051726 41 291 3.0 9.0 0.00 0.42 0.00 94 1013.0
20260507051225 41 289 3.0 9.0 0.00 0.42 0.00 95 1012.9
20260507050725 42 262 2.0 9.0 0.00 0.42 0.00 95 1012.9
20260507050443 42 295 1.0 7.0 0.00 0.42 0.00 95 1012.7
20260507045725 42 294 2.0 9.0 0.00 0.42 0.00 95 1012.9
20260507045225 42 293 3.0 9.0 0.00 0.42 0.00 95 1012.7
20260507044725 42 288 4.0 10.0 0.00 0.42 0.00 95 1012.6
20260507044224 42 297 3.0 10.0 0.00 0.42 0.00 95 1012.5
20260507043725 42 304 3.0 9.0 0.00 0.42 0.00 95 1012.4
20260507043223 42 304 4.0 9.0 0.00 0.42 0.00 95 1012.5
20260507042722 42 304 4.0 9.0 0.00 0.42 0.00 95 1012.5
20260507042221 42 302 3.0 10.0 0.00 0.42 0.00 95 1012.4
20260507041941 42 304 4.0 10.0 0.00 0.42 0.00 95 1012.4
20260507041439 43 301 4.0 9.0 0.00 0.42 0.00 95 1012.3
20260507040316 43 309 2.0 11.0 0.01 0.42 0.00 95 1012.0
20260507035716 43 296 2.0 5.0 0.01 0.42 0.42 95 1012.1
20260507035217 43 296 2.0 5.0 0.01 0.42 0.42 95 1012.2
20260507034718 44 296 1.0 5.0 0.01 0.42 0.42 95 1012.1
20260507034217 44 296 2.0 7.0 0.01 0.42 0.42 95 1011.9
20260507033716 44 296 2.0 7.0 0.01 0.42 0.42 95 1011.9
20260507033217 44 298 2.0 7.0 0.01 0.42 0.42 95 1012.1
20260507032716 44 298 3.0 7.0 0.01 0.43 0.42 95 1012.0
20260507032217 44 296 3.0 8.0 0.01 0.45 0.42 95 1012.0
20260507031717 44 308 3.0 8.0 0.01 0.47 0.42 95 1012.0
20260507031435 44 309 3.0 8.0 0.01 0.49 0.42 95 1011.7
20260507030716 45 0 3.0 8.0 0.01 0.50 0.42 95 1011.7
20260507030221 45 319 3.0 8.0 0.00 0.50 0.41 95 1011.7
20260507025947 45 301 2.0 5.0 0.00 0.50 0.41 95 1011.7
20260507024716 45 300 1.0 5.0 0.00 0.51 0.41 95 1011.7
20260507023717 45 300 2.0 4.0 0.00 0.54 0.41 95 1011.6
20260507023216 45 300 1.0 4.0 0.00 0.55 0.41 95 1011.6
20260507022717 45 300 0.0 2.0 0.00 0.55 0.41 95 1011.6
20260507022216 45 300 0.0 2.0 0.00 0.56 0.41 95 1011.7
20260507021717 45 300 0.0 2.0 0.00 0.56 0.41 95 1011.9
20260507021216 44 300 1.0 2.0 0.00 0.56 0.41 95 1011.9
20260507020216 44 300 1.0 3.0 0.00 0.57 0.41 95 1012.0
20260507015216 44 300 0.0 1.0 0.00 0.58 0.41 95 1011.7
20260507014716 44 300 0.0 1.0 0.00 0.58 0.41 94 1012.0
20260507014217 44 300 0.0 1.0 0.00 0.59 0.41 94 1012.1
20260507013716 44 300 0.0 1.0 0.00 0.59 0.41 94 1011.9
20260507013216 44 300 0.0 1.0 0.00 0.60 0.41 94 1011.9
20260507012716 44 300 0.0 1.0 0.00 0.61 0.41 94 1011.9
20260507012217 44 300 0.0 1.0 0.00 0.62 0.41 94 1011.7
20260507011716 44 300 0.0 1.0 0.00 0.62 0.41 94 1011.7
20260507011440 44 300 0.0 1.0 0.00 0.62 0.41 94 1011.6
20260507010716 44 300 0.0 2.0 0.00 0.63 0.41 94 1011.4
20260507010216 44 300 0.0 2.0 0.00 0.63 0.41 94 1011.3
20260507005716 44 300 0.0 2.0 0.00 0.63 0.41 94 1011.3
20260507005436 44 300 0.0 2.0 0.00 0.63 0.41 94 1011.3
20260507004716 44 300 0.0 2.0 0.00 0.64 0.41 94 1011.3
20260507004216 44 300 0.0 2.0 0.00 0.64 0.41 94 1011.2
20260507003717 44 300 0.0 1.0 0.00 0.64 0.41 94 1011.2
20260507003217 44 300 0.0 1.0 0.00 0.64 0.41 94 1011.1
20260507002717 44 300 0.0 1.0 0.00 0.64 0.41 94 1011.0
20260507002216 44 300 0.0 3.0 0.00 0.65 0.41 94 1011.0
20260507001716 44 300 1.0 4.0 0.00 0.65 0.41 94 1011.0
20260507001437 45 300 1.0 4.0 0.00 0.65 0.41 94 1010.9
20260507000716 45 301 1.0 4.0 0.00 0.66 0.41 94 1010.9
20260507000216 44 301 0.0 1.0 0.00 0.68 0.41 94 1010.9
20260506235937 45 301 0.0 1.0 0.00 0.68 0.41 94 1010.7
20260506235216 45 301 0.0 3.0 0.00 0.68 0.41 94 1010.7
20260506234939 45 301 1.0 3.0 0.00 0.68 0.41 94 1010.7
20260506234216 45 301 0.0 2.0 0.00 0.68 0.41 94 1010.6
20260506233716 45 301 0.0 3.0 0.00 0.68 0.41 94 1010.6
20260506232716 45 301 1.0 7.0 0.00 0.68 0.41 94 1010.7
20260506232216 45 301 2.0 7.0 0.00 0.68 0.41 94 1010.6
20260506231716 45 321 1.0 4.0 0.00 0.68 0.41 94 1010.7
20260506231216 45 321 1.0 4.0 0.00 0.68 0.41 95 1010.6
20260506230716 45 286 1.0 4.0 0.00 0.68 0.41 95 1010.3
20260506230216 45 286 0.0 2.0 0.00 0.68 0.41 95 1010.1
20260506225716 45 286 1.0 4.0 0.00 0.68 0.41 95 1010.0
20260506225439 45 286 1.0 4.0 0.00 0.68 0.41 95 1010.0
20260506224716 45 286 1.0 2.0 0.00 0.68 0.41 95 1010.0
20260506223716 45 286 1.0 4.0 0.00 0.68 0.41 95 1010.0
20260506223218 45 286 2.0 4.0 0.00 0.68 0.41 95 1010.1
20260506222716 45 286 2.0 4.0 0.00 0.68 0.41 96 1010.2
20260506222216 45 286 1.0 4.0 0.00 0.68 0.41 96 1010.2
20260506221934 45 286 2.0 4.0 0.00 0.68 0.41 96 1010.2
20260506221216 45 286 1.0 3.0 0.00 0.68 0.41 96 1010.2
20260506220715 45 286 1.0 4.0 0.00 0.68 0.41 96 1010.3
20260506220216 45 286 1.0 4.0 0.00 0.68 0.41 96 1010.4
20260506215719 45 286 2.0 6.0 0.00 0.68 0.41 96 1010.4
20260506215216 45 286 3.0 6.0 0.00 0.68 0.41 96 1010.4
20260506214934 45 286 2.0 7.0 0.00 0.68 0.41 96 1010.2
20260506214216 45 286 2.0 7.0 0.00 0.68 0.41 96 1010.2
20260506213717 45 286 3.0 6.0 0.00 0.68 0.41 96 1010.1
20260506213217 45 286 2.0 6.0 0.00 0.68 0.41 96 1010.1
20260506212716 45 285 2.0 4.0 0.00 0.68 0.41 97 1010.0
20260506212216 45 285 2.0 7.0 0.00 0.68 0.41 97 1010.0
20260506211937 45 285 3.0 7.0 0.00 0.68 0.41 97 1010.0
20260506211433 45 306 2.0 5.0 0.00 0.68 0.41 97 1010.0
20260506210716 44 309 2.0 5.0 0.00 0.68 0.41 97 1010.0
20260506210438 44 309 3.0 8.0 0.00 0.68 0.41 97 1009.9
20260506205715 44 316 3.0 8.0 0.00 0.68 0.41 97 1010.0
20260506205216 44 299 3.0 7.0 0.00 0.69 0.41 97 1010.0
20260506204716 44 297 4.0 9.0 0.00 0.69 0.41 97 1010.0
20260506204217 44 307 4.0 9.0 0.00 0.71 0.41 97 1010.0
20260506203716 44 295 3.0 9.0 0.00 0.71 0.41 97 1009.9
20260506203437 44 355 3.0 6.0 0.00 0.71 0.41 97 1009.8
20260506202716 44 355 3.0 6.0 0.00 0.71 0.41 97 1009.8
20260506202444 44 355 3.0 6.0 0.00 0.71 0.41 97 1009.7
20260506201715 44 355 3.0 9.0 0.00 0.71 0.41 97 1009.6
20260506201216 44 346 4.0 10.0 0.00 0.74 0.41 97 1009.6
20260506200716 44 319 4.0 10.0 0.00 0.74 0.41 97 1009.5
20260506200435 44 307 5.0 9.0 0.00 0.74 0.41 97 1009.6
20260506195715 44 310 4.0 10.0 0.00 0.74 0.41 97 1009.5
20260506195217 44 333 5.0 12.0 0.00 0.74 0.41 97 1009.6
20260506194716 44 347 5.0 12.0 0.00 0.74 0.41 97 1009.7
20260506194216 44 355 5.0 12.0 0.00 0.74 0.41 97 1009.6
20260506193715 44 350 6.0 12.0 0.00 0.74 0.41 97 1009.5
20260506193216 44 0 5.0 10.0 0.00 0.74 0.41 97 1009.6
20260506192933 44 346 5.0 10.0 0.00 0.74 0.41 97 1009.5
20260506192216 44 322 4.0 11.0 0.00 0.74 0.41 97 1009.5
20260506191937 44 302 3.0 11.0 0.00 0.74 0.41 97 1009.5
20260506191215 44 313 3.0 8.0 0.00 0.74 0.41 97 1009.5
20260506190716 44 302 3.0 8.0 0.00 0.74 0.41 97 1009.4
20260506190216 44 355 5.0 11.0 0.00 0.74 0.41 97 1009.3
20260506185716 44 5 5.0 11.0 0.00 0.74 0.41 97 1009.2
20260506185216 44 355 4.0 10.0 0.00 0.74 0.41 97 1009.1
20260506184716 44 350 4.0 9.0 0.00 0.74 0.41 97 1009.1
20260506184216 44 341 4.0 10.0 0.00 0.74 0.41 97 1009.2
20260506183937 44 309 4.0 11.0 0.00 0.74 0.41 97 1009.3
20260506183215 44 5 5.0 11.0 0.00 0.74 0.41 97 1009.3
20260506182716 44 341 4.0 10.0 0.00 0.74 0.41 97 1009.2
20260506182431 44 28 4.0 11.0 0.00 0.74 0.41 97 1009.1
20260506181716 44 355 4.0 11.0 0.00 0.74 0.41 97 1009.1
20260506181215 44 323 5.0 10.0 0.00 0.75 0.41 97 1009.0
20260506180715 44 355 5.0 10.0 0.00 0.76 0.41 97 1008.9
20260506180215 45 355 4.0 10.0 0.00 0.80 0.41 97 1008.9
20260506175716 45 320 4.0 9.0 0.00 0.81 0.41 97 1008.7
20260506175216 45 355 4.0 9.0 0.00 0.83 0.41 97 1008.7
20260506174940 45 350 5.0 10.0 0.00 0.91 0.41 97 1008.5
20260506174216 45 13 5.0 10.0 0.00 0.91 0.41 97 1008.5
20260506173715 45 348 3.0 9.0 0.00 0.92 0.41 97 1008.4
20260506173216 46 324 3.0 8.0 0.00 0.94 0.41 97 1008.4
20260506172215 46 296 3.0 5.0 0.00 0.94 0.41 97 1008.3
20260506171715 45 319 3.0 6.0 0.01 0.94 0.41 97 1008.2
20260506171216 46 319 3.0 8.0 0.01 0.94 0.41 97 1008.4
20260506170715 46 317 2.0 8.0 0.01 0.95 0.41 97 1008.4
20260506170215 45 327 2.0 4.0 0.01 1.05 0.41 97 1008.2
20260506165715 45 330 2.0 5.0 0.01 1.05 0.41 97 1008.3
20260506165216 45 329 3.0 6.0 0.01 1.05 0.41 97 1008.2
20260506164940 45 333 3.0 6.0 0.01 1.05 0.41 97 1008.1
20260506164215 45 0 3.0 7.0 0.02 1.05 0.41 97 1008.2
20260506163716 45 5 3.0 7.0 0.02 1.05 0.41 97 1008.1
20260506163215 45 14 4.0 9.0 0.02 1.05 0.41 97 1008.3
20260506162715 45 12 4.0 9.0 0.02 1.05 0.41 97 1008.2
20260506162216 45 355 4.0 8.0 0.02 1.05 0.41 97 1008.3
20260506161715 45 320 3.0 8.0 0.01 1.04 0.40 97 1008.4
20260506161216 45 5 3.0 8.0 0.01 1.04 0.40 97 1008.3
20260506160715 45 5 3.0 8.0 0.01 1.04 0.40 97 1008.2
20260506160216 44 0 3.0 8.0 0.01 1.04 0.40 97 1008.4
20260506155715 44 5 2.0 5.0 0.01 1.04 0.40 97 1008.6
20260506155216 44 5 3.0 6.0 0.01 1.04 0.40 97 1008.6
20260506154716 44 348 4.0 10.0 0.01 1.04 0.40 97 1008.6
20260506154215 44 5 4.0 10.0 0.00 1.03 0.39 97 1008.6
20260506153715 44 355 4.0 9.0 0.00 1.03 0.39 97 1008.6
20260506153215 44 355 4.0 9.0 0.01 1.03 0.39 97 1008.7
20260506152716 44 9 4.0 8.0 0.01 1.03 0.39 97 1008.6
20260506152215 44 5 4.0 8.0 0.01 1.03 0.39 97 1008.5
20260506151715 44 5 4.0 8.0 0.01 1.03 0.39 97 1008.4
20260506151215 44 5 4.0 8.0 0.01 1.03 0.39 97 1008.5
20260506150715 44 5 4.0 8.0 0.02 1.03 0.39 97 1008.4
20260506145715 44 22 4.0 7.0 0.02 1.03 0.39 97 1008.1
20260506145215 44 15 3.0 7.0 0.03 1.03 0.39 97 1008.3
20260506144715 44 76 2.0 5.0 0.03 1.03 0.39 97 1008.1
20260506144216 44 76 3.0 5.0 0.03 1.03 0.39 97 1007.9
20260506143939 44 76 3.0 5.0 0.03 1.03 0.39 97 1007.9
20260506143215 44 76 3.0 7.0 0.03 1.02 0.38 97 1007.9
20260506142715 44 122 3.0 7.0 0.03 1.02 0.38 97 1007.7
20260506142215 44 59 3.0 6.0 0.03 1.02 0.38 97 1007.9
20260506141716 44 59 3.0 6.0 0.04 1.02 0.38 97 1007.9
20260506141215 44 60 3.0 8.0 0.04 1.02 0.38 97 1007.9
20260506140715 44 59 3.0 8.0 0.04 1.01 0.37 97 1008.0
20260506140215 43 80 3.0 7.0 0.04 1.01 0.37 97 1007.8
20260506135715 43 86 3.0 8.0 0.05 1.01 0.36 96 1007.9
20260506135215 43 87 4.0 8.0 0.05 1.00 0.36 96 1007.9
20260506134715 43 60 4.0 7.0 0.05 1.00 0.36 96 1008.0
20260506134215 43 60 4.0 7.0 0.06 1.00 0.36 96 1007.9
20260506133716 43 49 3.0 7.0 0.07 1.00 0.36 96 1008.0
20260506133215 43 74 4.0 8.0 0.07 0.99 0.35 96 1008.1
20260506132715 43 55 4.0 9.0 0.08 0.99 0.35 96 1008.1
20260506132214 43 51 4.0 9.0 0.09 0.99 0.35 96 1008.2
20260506131939 43 39 3.0 9.0 0.08 0.98 0.34 96 1008.3
20260506131215 43 17 3.0 9.0 0.09 0.98 0.34 96 1008.2
20260506130936 43 57 4.0 9.0 0.08 0.97 0.33 96 1008.1
20260506130215 43 64 4.0 9.0 0.09 0.97 0.33 96 1008.2
20260506125716 43 55 4.0 9.0 0.09 0.96 0.32 96 1008.1
20260506125215 43 40 4.0 9.0 0.08 0.95 0.31 96 1008.2
20260506124715 43 26 3.0 6.0 0.08 0.95 0.30 96 1008.4
20260506124216 43 58 3.0 6.0 0.07 0.94 0.30 96 1008.2
20260506123715 43 55 4.0 11.0 0.06 0.93 0.29 96 1008.0
20260506123436 43 54 5.0 11.0 0.06 0.92 0.28 96 1008.0
20260506122715 43 56 4.0 9.0 0.05 0.91 0.27 96 1008.1
20260506122215 43 52 4.0 9.0 0.04 0.90 0.26 96 1008.0
20260506121715 43 68 5.0 10.0 0.05 0.90 0.26 96 1007.8
20260506121215 43 56 5.0 11.0 0.04 0.89 0.25 96 1008.0
20260506120715 43 57 5.0 11.0 0.04 0.89 0.24 96 1008.0
20260506120216 43 62 5.0 12.0 0.04 0.88 0.24 96 1007.8
20260506115932 43 54 5.0 12.0 0.03 0.87 0.23 96 1008.0
20260506115215 43 51 5.0 12.0 0.04 0.87 0.23 96 1007.7
20260506114716 43 96 5.0 11.0 0.05 0.87 0.23 96 1007.7
20260506114215 43 59 6.0 13.0 0.06 0.87 0.23 96 1007.9
20260506113715 43 63 6.0 13.0 0.06 0.87 0.23 96 1008.0
20260506113215 43 45 5.0 12.0 0.06 0.86 0.22 96 1008.2
20260506112715 43 57 5.0 11.0 0.06 0.86 0.22 96 1008.1
20260506112215 43 38 5.0 11.0 0.06 0.86 0.22 96 1008.0
20260506111715 43 56 5.0 11.0 0.06 0.85 0.21 96 1008.2
20260506111215 43 57 5.0 11.0 0.06 0.85 0.21 96 1008.5
20260506110715 43 68 5.0 12.0 0.06 0.85 0.21 96 1008.3
20260506110215 43 54 6.0 12.0 0.05 0.84 0.20 96 1008.4
20260506105715 43 63 6.0 11.0 0.06 0.84 0.19 96 1008.5
20260506105215 43 47 5.0 11.0 0.05 0.83 0.19 96 1008.6
20260506104715 43 42 4.0 11.0 0.04 0.82 0.18 96 1008.5
20260506104216 44 53 4.0 9.0 0.03 0.81 0.17 96 1008.3
20260506103713 44 57 4.0 8.0 0.04 0.81 0.17 96 1008.3
20260506102712 44 41 5.0 11.0 0.05 0.80 0.16 96 1008.0
20260506102213 44 51 4.0 10.0 0.05 0.80 0.16 96 1007.9
20260506101713 43 86 4.0 9.0 0.05 0.79 0.15 96 1007.8
20260506100213 43 75 4.0 11.0 0.05 0.79 0.14 96 1007.9
20260506095936 43 59 5.0 11.0 0.05 0.78 0.14 96 1007.8
20260506095432 43 109 4.0 11.0 0.05 0.78 0.14 96 1007.7
20260506094712 43 69 4.0 10.0 0.06 0.78 0.14 96 1007.7
20260506094213 44 75 5.0 10.0 0.07 0.78 0.14 96 1007.8
20260506093713 44 130 6.0 12.0 0.06 0.77 0.13 96 1007.8
20260506093212 44 69 5.0 12.0 0.06 0.76 0.12 96 1008.0
20260506092933 44 73 5.0 12.0 0.05 0.75 0.11 96 1008.1